Location: Seattle
(47.6064°N, 122.3308°W)
Time: 08:26:49
(UTC-07:00)

RS-15 - Pass Details

Date: 01 April 2023
Orbit: 1885 x 2159 km, 64.8° (Epoch: 01 June)

Event Time Altitude Azimuth Distance (km) Brightness Sun altitude
Rises 21:27:56 0° 296° (WNW) 5,684 12.2 -18.1°
Reaches altitude 10° 21:32:01 10° 306° (NW) 4,668 11.3 -18.7°
Maximum altitude 21:42:58 36° 10° (N) 3,009 9.2 -20.3°
Drops below altitude 10° 21:53:32 10° 74° (ENE) 4,501 9.6 -21.8°
Enters shadow 21:54:27 - 76° (ENE) 4,724 9.7 -21.9°
